[[{"header":{"parameterUnit":"m.s-1","parameterCategory":1,"la1":30.2991,"la2":30.254,"lo1":-89.0895,"lo2":-89.0444,"dy":0.0017,"dx":0.0017,"nx":28,"ny":28,"refTime":"2024-04-16T21:00:00:Z","depth":0,"parameterNumber":2,"parameterNumberName":"U-component_of_WINDS"},"data":[0,0,0,0,0,0,0,0,0,0,0,0,0,0,0,0,0,0,0,0,0,0,0,0,0,0,0,0,0,0,0,0,0,0,0,0,0,0,0,0,0,0,0,0,0,0,0,0,0,0,0,0,0,0,0,0,0,0,-2.9893,-2.9893,0,-2.9868,-2.9867,-2.9867,-2.9807,-2.9805,-2.9804,-2.9803,-2.9778,-2.9779,-2.9779,0,0,0,0,0,0,0,0,0,0,0,0,0,-2.9891,-2.9891,-2.9893,-2.9893,-2.9893,-2.9868,-2.9867,-2.9867,-2.9807,-2.9805,-2.9804,-2.9802,-2.9778,-2.9779,-2.9779,0,0,0,0,0,0,0,0,0,0,0,0,0,-2.9881,-2.9891,-2.9893,-2.9859,-2.9856,-2.9868,-2.9867,-2.9867,-2.9807,-2.9805,-2.9803,-2.9802,-2.9778,-2.9779,-2.9779,-2.9822,0,0,-2.9782,-2.9782,0,0,0,0,0,0,0,0,-2.9882,-2.9882,-2.9865,-2.9862,-2.9858,-2.9838,-2.9857,-2.9852,-2.9808,-2.9826,-2.9803,-2.9801,-2.98,-2.9799,-2.9798,-2.9821,-2.982,-2.9782,-2.9782,-2.9783,-2.9783,0,0,0,0,0,0,0,-2.9883,-2.9882,-2.9883,-2.9865,-2.9861,-2.9846,-2.9843,-2.9856,-2.9824,-2.9824,-2.982,-2.9817,-2.9798,-2.9798,-2.9797,-2.982,-2.9782,-2.9783,-2.9783,-2.9783,-2.9876,-2.9878,0,0,0,0,0,0,-2.9888,-2.9883,-2.9884,-2.9882,-2.9866,-2.9848,-2.9844,-2.9847,-2.9824,-2.9818,-2.9819,-2.9815,-2.9797,-2.9796,-2.9796,-2.9843,-2.9783,-2.9783,-2.9784,-2.9874,-2.9876,-2.9878,0,0,0,0,0,0,-2.9888,-2.9889,-2.9885,-2.9882,-2.988,-2.985,-2.9853,-2.9847,-2.9847,-2.982,-2.9814,-2.9825,-2.9796,-2.9795,-2.9816,-2.9842,-2.9784,-2.9784,-2.9871,-2.9874,-2.9877,-2.9939,0,0,0,0,0,0,-2.9888,-2.9889,-2.9905,-2.9882,-2.988,-2.9905,-2.9855,-2.9848,-2.9848,-2.9842,-2.9823,-2.9818,-2.9794,-2.9815,-2.9817,-2.9842,-2.9785,-2.9869,-2.9873,-2.9876,-2.9935,-2.9944,-2.9952,0,0,0,0,0,-2.9889,-2.9924,-2.9906,-2.9906,-2.9899,-2.9907,-2.9905,-2.9876,-2.9851,-2.9866,-2.9849,-2.9819,-2.9839,-2.9818,-2.9819,-2.9845,-2.9867,-2.9872,-2.9876,-2.9931,-2.9942,-2.9952,0,0,0,0,0,0,-2.995,-2.992,-2.99,-2.9929,-2.9921,-2.9896,-2.9915,-2.9889,-2.9889,-2.9883,-2.9847,-2.9844,-2.9869,-2.986,-2.9836,-2.9885,-2.9848,-2.9853,-2.989,-2.99,-2.9909,-2.991,-2.9786,0,0,0,0,0,-2.9967,-2.9975,-2.9949,-2.9977,-2.9974,-2.9945,-2.9948,-2.9926,-2.9916,-2.9912,-2.9896,-2.9889,-2.9893,-2.9896,-2.9899,-2.9934,-2.9928,-2.9953,-2.9961,-2.9968,-2.9972,-2.9989,-2.9999,-2.9893,-2.9893,-2.9893,0,0,-3.0002,-2.9987,-2.9994,-2.9989,-2.998,-2.9989,-2.9943,-2.9955,-2.9961,-2.9914,-2.9932,-2.9921,-2.991,-2.9937,-2.9949,-2.993,-3.0001,-2.9974,-2.998,-2.998,-2.9995,-3.0005,-3.0014,-2.9896,-2.9895,-2.9895,0,0,-3.007,-3.006,-3.0081,-3.0074,-3.0061,-3.0041,-3.0047,-3.0027,-3.0017,-3.0035,-2.9999,-3.0007,-3.0016,-3.0009,-3.0006,-3.0073,-3.0045,-3.0075,-3.0119,-3.0136,-3.0144,-3.0151,-3.0173,-3.0182,-3.008,-3.008,-3.008,0,-3.0115,-3.0127,-3.0096,-3.011,-3.0108,-3.0067,-3.0088,-3.0082,-3.0071,-3.0071,-3.005,-3.006,-3.005,-3.0074,-3.0091,-3.0091,-3.0095,-3.0076,-3.0145,-3.0152,-3.0158,-3.0179,-3.0188,-3.0083,-3.0083,-3.0083,-3.0082,0,-3.0183,-3.0192,-3.0211,-3.02,-3.0201,-3.0219,-3.0191,-3.0196,-3.0175,-3.0158,-3.0177,-3.0163,-3.0162,-3.0167,-3.0146,-3.0189,-3.0177,-3.0152,-3.0114,-3.0173,-3.0191,-3.0199,-3.0088,-3.0087,-3.0086,-3.0085,0,0,-3.0287,-3.0259,-3.0267,-3.0261,-3.0244,-3.0251,-3.0267,-3.0265,-3.027,-3.0264,-3.0276,-3.0285,-3.0261,-3.0258,-3.0237,-3.0252,-3.0304,-3.0224,-3.0223,-3.0238,-3.0348,-3.0366,-3.0375,-3.0286,-3.0288,-3.0289,-3.0348,0,-3.0349,-3.0374,-3.0347,-3.0378,-3.0385,-3.0346,-3.036,-3.0352,-3.0337,-3.0342,-3.0326,-3.0331,-3.03,-3.0298,-3.0311,-3.0295,-3.0325,-3.029,-3.0296,-3.0297,-3.0298,-3.0385,-3.0404,-3.0461,-3.0356,-3.0357,-3.0358,0,-3.0425,-3.0422,-3.0453,-3.0434,-3.0436,-3.0449,-3.0445,-3.045,-3.044,-3.0428,-3.0425,-3.04,-3.0414,-3.0379,-3.0399,-3.0376,-3.0377,-3.0369,-3.0371,-3.0368,-3.0329,-3.0384,-3.0479,-3.0487,-3.0369,-3.0368,-3.0368,0,-3.0496,-3.05,-3.0519,-3.0516,-3.0494,-3.0504,-3.0495,-3.0483,-3.0484,-3.0481,-3.048,-3.048,-3.0479,-3.0479,-3.0454,-3.0431,-3.0476,-3.0439,-3.0466,-3.0466,-3.0475,-3.0474,-3.057,-3.048,-3.0479,-3.0479,-3.0479,0,-3.0567,-3.0587,-3.055,-3.0561,-3.0583,-3.0552,-3.0575,-3.0562,-3.0552,-3.056,-3.0528,-3.0536,-3.0503,-3.0509,-3.049,-3.0508,-3.0508,-3.0499,-3.0493,-3.05,-3.0501,-3.0499,-3.0493,-3.0482,-3.0481,-3.0481,-3.048,0,-3.0649,-3.0625,-3.0642,-3.0621,-3.0616,-3.0633,-3.0614,-3.0624,-3.0607,-3.0618,-3.0619,-3.0593,-3.0598,-3.0573,-3.0574,-3.0561,-3.0588,-3.0576,-3.0591,-3.0586,-3.0614,-3.0611,-3.0709,-3.072,-3.0625,-3.0626,-3.0627,0,-3.0695,-3.0709,-3.0689,-3.0692,-3.0685,-3.0691,-3.0691,-3.0662,-3.0663,-3.0652,-3.0664,-3.0665,-3.0665,-3.0674,-3.0655,-3.0655,-3.0643,-3.0677,-3.0642,-3.0649,-3.0641,-3.0639,-3.064,-3.0684,-3.0685,-3.0686,-3.0687,0,-3.0778,-3.0766,-3.0767,-3.0765,-3.0766,-3.0762,-3.0757,-3.0762,-3.073,-3.0734,-3.0737,-3.0737,-3.0737,-3.0739,-3.0736,-3.0727,-3.0701,-3.0698,-3.0704,-3.071,-3.0717,-3.0712,-3.0608,-3.0695,-3.0695,-3.0694,-3.0693,-3.0693,-3.0842,-3.0853,-3.084,-3.0843,-3.0835,-3.0831,-3.0839,-3.0823,-3.0826,-3.0823,-3.0806,-3.0813,-3.0802,-3.0794,-3.0789,-3.0794,-3.0777,-3.0786,-3.0788,-3.079,-3.0794,-3.0719,-3.0793,-3.0793,-3.0793,-3.0792,-3.0792,0,-3.0923,-3.0912,-3.0915,-3.0908,-3.091,-3.0887,-3.0879,-3.0883,-3.0889,-3.0881,-3.0881,-3.0885,-3.0887,-3.0869,-3.0868,-3.0876,-3.0864,-3.0876,-3.0874,-3.0873,-3.081,-3.0804,-3.0886,-3.0886,-3.0886,-3.0886,-3.0886,-3.0886,-3.0964,-3.0981,-3.0967,-3.098,-3.0969,-3.0975,-3.0973,-3.0969,-3.0962,-3.0968,-3.0969,-3.0957,-3.0945,-3.0943,-3.0944,-3.0938,-3.0939,-3.0955,-3.0945,-3.0886,-3.0877,-3.0868,-3.0863,-3.0956,-3.0956,-3.1007,-3.1008,-3.1008]},{"header":{"parameterUnit":"m.s-1","parameterCategory":1,"la1":30.2991,"la2":30.254,"lo1":-89.0895,"lo2":-89.0444,"dy":0.0017,"dx":0.0017,"nx":28,"ny":28,"refTime":"2024-04-16T21:00:00:Z","depth":0,"parameterNumber":3,"parameterNumberName":"V-component_of_WINDS"},"data":[0,0,0,0,0,0,0,0,0,0,0,0,0,0,0,0,0,0,0,0,0,0,0,0,0,0,0,0,0,0,0,0,0,0,0,0,0,0,0,0,0,0,0,0,0,0,0,0,0,0,0,0,0,0,0,0,0,0,3.3928,3.3928,0,3.3967,3.3967,3.3968,3.396,3.3959,3.3959,3.3958,3.3996,3.3998,3.4,0,0,0,0,0,0,0,0,0,0,0,0,0,3.3844,3.3845,3.3927,3.3928,3.3929,3.3967,3.3967,3.3968,3.396,3.3959,3.3958,3.3958,3.3996,3.3998,3.4,0,0,0,0,0,0,0,0,0,0,0,0,0,3.3881,3.3846,3.3927,3.3929,3.393,3.3967,3.3967,3.3968,3.396,3.3959,3.3958,3.3957,3.3995,3.3997,3.4,3.4037,0,0,3.4008,3.4009,0,0,0,0,0,0,0,0,3.3879,3.3884,3.3929,3.3929,3.393,3.3958,3.3952,3.3991,3.3961,3.3949,3.3958,3.3957,3.3984,3.3987,3.3997,3.4039,3.404,3.4008,3.4009,3.401,3.4011,0,0,0,0,0,0,0,3.3876,3.3882,3.3943,3.3929,3.393,3.3928,3.3932,3.3959,3.3972,3.395,3.3949,3.3954,3.3984,3.3995,3.3998,3.4041,3.4008,3.401,3.4012,3.4013,3.4115,3.4116,0,0,0,0,0,0,3.3873,3.388,3.3942,3.3944,3.3901,3.393,3.3935,3.395,3.3972,3.3974,3.3955,3.3954,3.3991,3.3995,3.3999,3.4044,3.401,3.4013,3.4014,3.4114,3.4115,3.4116,0,0,0,0,0,0,3.3872,3.3879,3.394,3.3912,3.392,3.3933,3.395,3.3951,3.3962,3.3976,3.3978,3.3964,3.399,3.3996,3.4028,3.4046,3.4014,3.4016,3.4112,3.4114,3.4116,3.4135,0,0,0,0,0,0,3.3869,3.3878,3.3893,3.3913,3.3921,3.3969,3.3951,3.3953,3.3966,3.3965,3.3984,3.3986,3.399,3.4024,3.403,3.4048,3.4018,3.4111,3.4113,3.4115,3.4132,3.4137,3.4141,0,0,0,0,0,3.3866,3.3896,3.3894,3.3901,3.394,3.397,3.3975,3.3979,3.3968,3.3982,3.3991,3.3986,3.4043,3.4027,3.4034,3.4054,3.411,3.4112,3.4115,3.4131,3.4136,3.414,0,0,0,0,0,0,3.3877,3.3899,3.3896,3.3934,3.395,3.3968,3.3987,3.3984,3.4004,3.4001,3.4005,3.4009,3.4042,3.4051,3.4034,3.4091,3.4074,3.4079,3.4084,3.4089,3.4093,3.409,3.402,0,0,0,0,0,3.3884,3.3907,3.3924,3.3956,3.3964,3.3974,3.3987,3.3989,3.4006,3.4013,3.4024,3.404,3.4062,3.4076,3.4096,3.4133,3.4138,3.415,3.4154,3.4157,3.4161,3.4182,3.4188,3.4125,3.4125,3.4125,0,0,3.3898,3.3913,3.3927,3.3958,3.3971,3.3995,3.398,3.4005,3.4022,3.4016,3.4048,3.4057,3.4075,3.411,3.4126,3.4118,3.4179,3.4161,3.4163,3.4165,3.4185,3.4191,3.4196,3.4127,3.4127,3.4127,0,0,3.3937,3.395,3.3978,3.3991,3.4011,3.4018,3.4024,3.4043,3.4049,3.4081,3.4077,3.4097,3.4134,3.4147,3.4159,3.4202,3.4198,3.4209,3.423,3.425,3.4255,3.426,3.4276,3.4281,3.4212,3.4213,3.4213,0,3.3952,3.3987,3.3992,3.4018,3.4032,3.4028,3.4056,3.4068,3.4094,3.4103,3.4094,3.4141,3.4153,3.4191,3.4202,3.4211,3.4219,3.4207,3.4254,3.4259,3.4263,3.4278,3.4284,3.4214,3.4214,3.4213,3.4213,0,3.4005,3.403,3.405,3.4076,3.4091,3.4118,3.4126,3.4142,3.4142,3.4149,3.4182,3.4196,3.4219,3.4228,3.4229,3.4267,3.4262,3.4254,3.4237,3.427,3.4284,3.429,3.4216,3.4215,3.4215,3.4214,0,0,3.4051,3.408,3.4087,3.4099,3.4121,3.414,3.4166,3.419,3.4204,3.4221,3.4243,3.4275,3.4268,3.4281,3.4282,3.43,3.4334,3.429,3.429,3.4298,3.4378,3.4384,3.4391,3.4331,3.4332,3.4333,3.4376,0,3.4092,3.414,3.4145,3.4187,3.421,3.4207,3.423,3.4245,3.4253,3.4273,3.4281,3.4304,3.4292,3.43,3.4318,3.4327,3.435,3.4323,3.4352,3.4353,3.4348,3.4398,3.4405,3.4445,3.4382,3.4383,3.4384,0,3.4146,3.4166,3.4211,3.4231,3.424,3.4261,3.4284,3.4303,3.4321,3.4325,3.434,3.4339,3.4366,3.4349,3.4386,3.4367,3.4379,3.4385,3.4387,3.439,3.4371,3.4403,3.4458,3.4464,3.4392,3.4392,3.4391,0,3.4176,3.4214,3.4246,3.4257,3.428,3.4294,3.4305,3.4321,3.4335,3.4355,3.4364,3.4386,3.4398,3.4414,3.442,3.4406,3.4457,3.4439,3.4461,3.4461,3.4472,3.4471,3.4529,3.4478,3.4478,3.4478,3.4478,0,3.4221,3.4249,3.426,3.428,3.4311,3.4316,3.4346,3.4356,3.4371,3.4392,3.439,3.4409,3.4415,3.4435,3.4439,3.447,3.4475,3.4479,3.448,3.4479,3.4479,3.4488,3.4485,3.448,3.448,3.4479,3.4479,0,3.426,3.4269,3.4304,3.4323,3.4329,3.4351,3.4367,3.4386,3.4393,3.442,3.4426,3.4437,3.4462,3.4468,3.4497,3.45,3.4535,3.4533,3.453,3.453,3.4551,3.4549,3.4617,3.4627,3.4569,3.457,3.457,0,3.4289,3.431,3.4332,3.4347,3.4358,3.4381,3.4396,3.4401,3.4416,3.4438,3.4455,3.4479,3.4498,3.4537,3.4547,3.4569,3.4568,3.459,3.4571,3.457,3.4569,3.4568,3.457,3.4594,3.4595,3.4595,3.4595,0,3.4339,3.4343,3.4364,3.4388,3.4406,3.4424,3.4442,3.4453,3.4461,3.4478,3.4504,3.4519,3.4549,3.4572,3.4595,3.4604,3.4601,3.4601,3.4608,3.4608,3.4605,3.4608,3.454,3.46,3.4599,3.4599,3.4599,3.4599,3.4374,3.4394,3.4412,3.4437,3.4451,3.4467,3.4486,3.4496,3.4517,3.4543,3.4544,3.4571,3.4588,3.4618,3.4629,3.465,3.4644,3.4652,3.4655,3.4657,3.4659,3.4601,3.4654,3.4654,3.4654,3.4654,3.4654,0,3.4425,3.4437,3.4459,3.4485,3.4504,3.45,3.4519,3.4535,3.4559,3.4576,3.4595,3.4624,3.4648,3.466,3.4683,3.4697,3.4696,3.4703,3.4702,3.4705,3.4663,3.4656,3.4704,3.4704,3.4704,3.4704,3.4703,3.4703,3.4454,3.4486,3.4492,3.4531,3.4542,3.457,3.4581,3.4597,3.461,3.4643,3.4662,3.467,3.4685,3.4709,3.473,3.4733,3.4742,3.4749,3.4752,3.4713,3.4708,3.4703,3.4696,3.4751,3.4751,3.4791,3.4792,3.4792]}]]